Weather in Bryansky

Russia / Lipetsk Oblast     52°09′30″N   40°32′02″E
temp.,
°C
wind,
m/s
gust,
m/s
humid.,
%
clouds,
%
prec.,
mm/h
press.,
hPa
HPBL,
m
17 april, sat
sat1700:00+10sw336434 0.0 101936
03:00+10nne1164100 0.0 101810
06:00+9se2469100 0.0 101785
09:00+10wsw337899 0.1 1017350
12:00+9wsw2286100 1.1 1018304
15:00+10ssw2380100 6.4 1018425
18:00+11sse3475100 0.7 1018320
21:00+8ssw12834 0.9 101915
18 april, sun
sun1800:00+7s118330 0.0 101910
03:00+6ssw228771 0.0 102021
06:00+6ssw2483100 0.0 1019123
09:00+8sw347199 0.0 1020472
12:00+11ssw3452100 0.1 10201740
15:00+11ssw2354100 0.1 10201181
18:00+11ssw115648 0.0 1020237
21:00+8ese22667 0.0 102113
19 april, mon
mon1900:00+7se2274100 0.0 102014
03:00+6ese2276100 0.0 102012
06:00+6ene227646 0.0 102030
09:00+11e345464 0.0 1019564
12:00+14e33445 0.0 10181568
15:00+15ese344299 0.1 10162107
18:00+13se5855100 0.0 1016539
21:00+10e5988100 1.3 1017807
20 april, tue
tue2000:00+8e71288100 1.3 1016675
03:00+8e71491100 2.6 1015763
06:00+8e81492100 1.1 1013718
09:00+8e91690100 1.2 1012831
12:00+8e101990100 0.3 1010786
15:00+8ese132290100 5.3 1006912
18:00+10ese132590100 3.1 10031346
21:00+11se121990100 4.1 10031028
21 april, wed
wed2100:00+11sse9178498 0.4 1003791
03:00+10s91592100 4.3 10031187
06:00+9s91488100 1.1 10041253
09:00+7sw81286100 1.3 1009952
12:00+9sw71170100 0.1 10121357
15:00+11sw71058100 0.1 10141601
18:00+11s596642 0.0 1015632
21:00+9sse5984100 0.3 1017262